Location: Izdebno
(52.6670°N, 16.2170°E)
Time: 04:06:06
(UTC+02:00)

Transit 4A - Pass Details

Date: 26 February 2024
Orbit: 871 x 972 km, 66.8° (Epoch: 22 April)

Event Time Altitude Azimuth Distance (km) Brightness Sun altitude
Rises 10:27:45 0° 317° (NW) 3,502 10.4 24.9°
Reaches altitude 10° 10:30:30 10° 307° (NW) 2,548 9.8 25.1°
Maximum altitude 10:35:34 31° 247° (WSW) 1,484 9.2 25.4°
Drops below altitude 10° 10:40:35 10° 187° (S) 2,514 11.3 25.7°
Sets 10:43:18 0° 178° (S) 3,448 12.0 25.9°
